Time,TemperatureF,DewpointF,PressureIn,WindDirection,WindDirectionDegrees,WindSpeedMPH,WindSpeedGustMPH,Humidity,HourlyPrecipIn,Conditions,Clouds,dailyrainin,SoftwareType,DateUTC
2013-04-05 00:03:00,39.0,23.0,-100.00,South,190,0.0,0.0,52,0.00,,,-99.99,,2013-04-05 04:03:00,
2013-04-05 00:12:00,39.0,21.0,-100.00,South,175,0.0,0.0,47,0.00,,,-99.99,,2013-04-05 04:12:00,
2013-04-05 00:23:00,40.0,19.0,-100.00,WNW,295,0.0,0.0,41,0.00,,,-99.99,,2013-04-05 04:23:00,
2013-04-05 00:33:00,41.0,18.0,-100.00,West,275,0.0,0.0,39,0.00,,,-99.99,,2013-04-05 04:33:00,
2013-04-05 00:42:00,41.0,18.0,-100.00,South,180,0.0,0.0,39,0.00,,,-99.99,,2013-04-05 04:42:00,
2013-04-05 00:52:00,38.0,23.0,-100.00,South,170,0.0,0.0,53,0.00,,,-99.99,,2013-04-05 04:52:00,
2013-04-05 01:02:00,37.0,21.0,-100.00,South,185,0.0,0.0,52,0.00,,,-99.99,,2013-04-05 05:02:00,
2013-04-05 01:13:00,38.0,20.0,-100.00,SW,215,0.0,0.0,49,0.00,,,-99.99,,2013-04-05 05:13:00,
2013-04-05 01:22:00,37.0,20.0,-100.00,South,170,0.0,0.0,49,0.00,,,-99.99,,2013-04-05 05:22:00,
2013-04-05 01:32:00,37.0,22.0,-100.00,South,180,0.0,0.0,54,0.00,,,-99.99,,2013-04-05 05:32:00,
2013-04-05 01:42:00,35.0,23.0,-100.00,South,185,0.0,0.0,59,0.00,,,-99.99,,2013-04-05 05:42:00,
2013-04-05 01:52:00,35.0,22.0,-100.00,South,175,0.0,1.0,58,0.00,,,-99.99,,2013-04-05 05:52:00,
2013-04-05 02:02:00,35.0,22.0,-100.00,South,180,0.0,0.0,57,0.00,,,-99.99,,2013-04-05 06:02:00,
2013-04-05 02:12:00,35.0,21.0,-100.00,SSW,205,0.0,0.0,56,0.00,,,-99.99,,2013-04-05 06:12:00,
2013-04-05 02:22:00,37.0,20.0,-100.00,SSW,195,0.0,0.0,50,0.00,,,-99.99,,2013-04-05 06:22:00,
2013-04-05 02:32:00,38.0,20.0,-100.00,SSW,200,0.0,0.0,47,0.00,,,-99.99,,2013-04-05 06:32:00,
2013-04-05 02:42:00,35.0,21.0,-100.00,South,185,0.0,0.0,57,0.00,,,-99.99,,2013-04-05 06:42:00,
2013-04-05 02:52:00,34.0,22.0,-100.00,South,190,0.0,1.0,59,0.00,,,-99.99,,2013-04-05 06:52:00,
2013-04-05 03:03:00,35.0,21.0,-100.00,South,185,0.0,3.0,56,0.00,,,-99.99,,2013-04-05 07:03:00,
2013-04-05 03:12:00,36.0,21.0,-100.00,South,185,1.0,4.0,54,0.00,,,-99.99,,2013-04-05 07:12:00,
2013-04-05 03:22:00,35.0,21.0,-100.00,South,190,0.0,0.0,56,0.00,,,-99.99,,2013-04-05 07:22:00,
2013-04-05 03:32:00,34.0,22.0,-100.00,South,185,0.0,0.0,59,0.00,,,-99.99,,2013-04-05 07:32:00,
2013-04-05 03:42:00,34.0,21.0,-100.00,South,185,0.0,2.0,60,0.00,,,-99.99,,2013-04-05 07:42:00,
2013-04-05 03:52:00,35.0,21.0,-100.00,South,185,0.0,0.0,54,0.00,,,-99.99,,2013-04-05 07:52:00,
2013-04-05 04:03:00,36.0,21.0,-100.00,South,190,0.0,1.0,54,0.00,,,-99.99,,2013-04-05 08:03:00,
2013-04-05 04:13:00,36.0,20.0,-100.00,SSW,195,0.0,0.0,52,0.00,,,-99.99,,2013-04-05 08:13:00,
2013-04-05 04:22:00,36.0,21.0,-100.00,South,180,0.0,0.0,53,0.00,,,-99.99,,2013-04-05 08:22:00,
2013-04-05 04:33:00,35.0,21.0,-100.00,SSE,165,0.0,0.0,56,0.00,,,-99.99,,2013-04-05 08:33:00,
2013-04-05 04:43:00,35.0,22.0,-100.00,SSW,195,0.0,0.0,58,0.00,,,-99.99,,2013-04-05 08:43:00,
2013-04-05 04:52:00,36.0,21.0,-100.00,South,180,0.0,0.0,54,0.00,,,-99.99,,2013-04-05 08:52:00,
2013-04-05 05:02:00,35.0,22.0,-100.00,South,175,0.0,0.0,57,0.00,,,-99.99,,2013-04-05 09:02:00,
2013-04-05 05:12:00,34.0,22.0,-100.00,South,185,0.0,0.0,59,0.00,,,-99.99,,2013-04-05 09:12:00,
2013-04-05 05:22:00,35.0,22.0,-100.00,South,185,0.0,0.0,58,0.00,,,-99.99,,2013-04-05 09:22:00,
2013-04-05 05:33:00,37.0,22.0,-100.00,SSW,195,0.0,0.0,54,0.00,,,-99.99,,2013-04-05 09:33:00,
2013-04-05 05:43:00,37.0,21.0,-100.00,SSW,195,0.0,1.0,53,0.00,,,-99.99,,2013-04-05 09:43:00,
2013-04-05 05:52:00,37.0,21.0,-100.00,SSW,195,0.0,0.0,52,0.00,,,-99.99,,2013-04-05 09:52:00,
2013-04-05 06:03:00,38.0,21.0,-100.00,South,180,0.0,0.0,51,0.00,,,-99.99,,2013-04-05 10:03:00,
2013-04-05 06:13:00,37.0,21.0,-100.00,South,190,0.0,0.0,52,0.00,,,-99.99,,2013-04-05 10:13:00,
2013-04-05 06:23:00,36.0,21.0,-100.00,SSW,200,0.0,0.0,54,0.00,,,-99.99,,2013-04-05 10:23:00,
2013-04-05 06:33:00,37.0,21.0,-100.00,West,260,0.0,0.0,52,0.00,,,-99.99,,2013-04-05 10:33:00,
2013-04-05 06:43:00,38.0,21.0,-100.00,West,265,0.0,0.0,51,0.00,,,-99.99,,2013-04-05 10:43:00,
2013-04-05 06:52:00,38.0,22.0,-100.00,WSW,250,0.0,0.0,51,0.00,,,-99.99,,2013-04-05 10:52:00,
2013-04-05 07:03:00,38.0,21.0,-100.00,West,265,0.0,0.0,50,0.00,,,-99.99,,2013-04-05 11:03:00,
2013-04-05 07:13:00,37.0,22.0,-100.00,SW,215,0.0,0.0,53,0.00,,,-99.99,,2013-04-05 11:13:00,
2013-04-05 07:22:00,37.0,22.0,-100.00,West,265,0.0,0.0,54,0.00,,,-99.99,,2013-04-05 11:22:00,
2013-04-05 07:33:00,37.0,22.0,-100.00,West,260,0.0,0.0,56,0.00,,,-99.99,,2013-04-05 11:33:00,
2013-04-05 07:42:00,37.0,22.0,-100.00,West,265,0.0,2.0,55,0.00,,,-99.99,,2013-04-05 11:42:00,
2013-04-05 07:52:00,37.0,22.0,-100.00,West,270,0.0,1.0,54,0.00,,,-99.99,,2013-04-05 11:52:00,
2013-04-05 08:02:00,38.0,22.0,-100.00,WNW,285,0.0,0.0,52,0.00,,,-99.99,,2013-04-05 12:02:00,
2013-04-05 08:12:00,38.0,23.0,-100.00,WNW,295,0.0,1.0,53,0.00,,,-99.99,,2013-04-05 12:12:00,
2013-04-05 08:22:00,38.0,24.0,-100.00,West,275,0.0,1.0,55,0.00,,,-99.99,,2013-04-05 12:22:00,
2013-04-05 08:32:00,38.0,24.0,-100.00,WNW,300,0.0,3.0,54,0.00,,,-99.99,,2013-04-05 12:32:00,
2013-04-05 08:42:00,39.0,24.0,-100.00,NW,305,0.0,4.0,54,0.00,,,-99.99,,2013-04-05 12:42:00,
2013-04-05 08:52:00,39.0,24.0,-100.00,NW,315,1.0,4.0,54,0.00,,,-99.99,,2013-04-05 12:52:00,
2013-04-05 09:02:00,39.0,25.0,-100.00,NW,310,3.0,6.0,55,0.00,,,-99.99,,2013-04-05 13:02:00,
2013-04-05 09:12:00,41.0,24.0,-100.00,NW,315,7.0,11.0,52,0.00,,,-99.99,,2013-04-05 13:12:00,
2013-04-05 09:23:00,41.0,25.0,-100.00,NNW,330,7.0,10.0,52,0.00,,,-99.99,,2013-04-05 13:23:00,
2013-04-05 09:32:00,41.0,25.0,-100.00,NW,325,6.0,9.0,51,0.00,,,-99.99,,2013-04-05 13:32:00,
2013-04-05 09:42:00,42.0,24.0,-100.00,NNW,335,7.0,11.0,50,0.00,,,-99.99,,2013-04-05 13:42:00,
2013-04-05 09:52:00,42.0,24.0,-100.00,North,355,6.0,12.0,48,0.00,,,-99.99,,2013-04-05 13:52:00,
2013-04-05 10:03:00,43.0,26.0,-100.00,NNE,15,4.0,7.0,50,0.00,,,-99.99,,2013-04-05 14:03:00,
2013-04-05 10:12:00,44.0,27.0,-100.00,North,10,6.0,9.0,51,0.00,,,-99.99,,2013-04-05 14:12:00,
2013-04-05 10:23:00,44.0,26.0,-100.00,NNE,15,4.0,12.0,49,0.00,,,-99.99,,2013-04-05 14:23:00,
2013-04-05 10:37:00,45.0,26.0,-100.00,NNE,30,4.0,10.0,48,0.00,,,-99.99,,2013-04-05 14:37:00,
2013-04-05 10:43:00,45.0,27.0,-100.00,North,0,4.0,13.0,50,0.00,,,-99.99,,2013-04-05 14:43:00,
2013-04-05 10:52:00,45.0,29.0,-100.00,NNE,25,8.0,13.0,53,0.00,,,-99.99,,2013-04-05 14:52:00,
2013-04-05 11:02:00,45.0,30.0,-100.00,North,10,6.0,15.0,56,0.00,,,-99.99,,2013-04-05 15:02:00,
2013-04-05 11:13:00,48.0,32.0,-100.00,North,10,6.0,9.0,54,0.00,,,-99.99,,2013-04-05 15:13:00,
2013-04-05 11:23:00,47.0,31.0,-100.00,NE,40,6.0,13.0,54,0.00,,,-99.99,,2013-04-05 15:23:00,
2013-04-05 11:33:00,47.0,33.0,-100.00,North,10,6.0,14.0,57,0.00,,,-99.99,,2013-04-05 15:33:00,
2013-04-05 11:43:00,48.0,33.0,-100.00,North,0,7.0,12.0,56,0.00,,,-99.99,,2013-04-05 15:43:00,
2013-04-05 11:53:00,48.0,34.0,-100.00,North,0,6.0,12.0,56,0.00,,,-99.99,,2013-04-05 15:53:00,
2013-04-05 12:03:00,49.0,33.0,-100.00,North,10,7.0,11.0,54,0.00,,,-99.99,,2013-04-05 16:03:00,
2013-04-05 12:13:00,48.0,32.0,-100.00,North,10,4.0,12.0,54,0.00,,,-99.99,,2013-04-05 16:13:00,
2013-04-05 12:23:00,50.0,34.0,-100.00,North,0,6.0,12.0,53,0.00,,,-99.99,,2013-04-05 16:23:00,
2013-04-05 12:33:00,51.0,33.0,-100.00,North,0,7.0,11.0,51,0.00,,,-99.99,,2013-04-05 16:33:00,
2013-04-05 12:42:00,50.0,33.0,-100.00,NNE,20,7.0,11.0,52,0.00,,,-99.99,,2013-04-05 16:42:00,
2013-04-05 12:52:00,50.0,32.0,-100.00,NE,35,7.0,13.0,50,0.00,,,-99.99,,2013-04-05 16:52:00,
2013-04-05 13:03:00,50.0,31.0,-100.00,NNW,335,9.0,16.0,47,0.00,,,-99.99,,2013-04-05 17:03:00,
2013-04-05 13:13:00,50.0,33.0,-100.00,NNE,20,8.0,12.0,51,0.00,,,-99.99,,2013-04-05 17:13:00,
2013-04-05 13:23:00,50.0,31.0,-100.00,North,0,7.0,14.0,48,0.00,,,-99.99,,2013-04-05 17:23:00,
2013-04-05 13:33:00,52.0,33.0,-100.00,North,0,5.0,16.0,48,0.00,,,-99.99,,2013-04-05 17:33:00,
2013-04-05 13:45:00,52.0,33.0,-100.00,North,355,6.0,16.0,48,0.00,,,-99.99,,2013-04-05 17:45:00,
2013-04-05 13:52:00,51.0,31.0,-100.00,North,350,9.0,16.0,46,0.00,,,-99.99,,2013-04-05 17:52:00,
2013-04-05 14:02:00,51.0,31.0,-100.00,NNW,345,6.0,12.0,45,0.00,,,-99.99,,2013-04-05 18:02:00,
2013-04-05 14:12:00,52.0,32.0,-100.00,North,355,9.0,14.0,47,0.00,,,-99.99,,2013-04-05 18:12:00,
2013-04-05 14:23:00,53.0,32.0,-100.00,NNW,330,9.0,19.0,45,0.00,,,-99.99,,2013-04-05 18:23:00,
2013-04-05 14:33:00,52.0,28.0,-100.00,NNW,335,12.0,18.0,39,0.00,,,-99.99,,2013-04-05 18:33:00,
2013-04-05 14:43:00,51.0,31.0,-100.00,North,0,8.0,17.0,45,0.00,,,-99.99,,2013-04-05 18:43:00,
2013-04-05 14:52:00,53.0,31.0,-100.00,NNW,330,11.0,16.0,44,0.00,,,-99.99,,2013-04-05 18:52:00,
2013-04-05 15:02:00,52.0,27.0,-100.00,NNW,335,11.0,21.0,39,0.00,,,-99.99,,2013-04-05 19:02:00,
2013-04-05 15:13:00,53.0,26.0,-100.00,NNW,335,11.0,19.0,35,0.00,,,-99.99,,2013-04-05 19:13:00,
2013-04-05 15:23:00,52.0,29.0,-100.00,NW,310,12.0,19.0,40,0.00,,,-99.99,,2013-04-05 19:23:00,
2013-04-05 15:33:00,52.0,27.0,-100.00,NNW,345,12.0,19.0,36,0.00,,,-99.99,,2013-04-05 19:33:00,
2013-04-05 15:42:00,52.0,26.0,-100.00,NW,325,7.0,17.0,37,0.00,,,-99.99,,2013-04-05 19:42:00,
2013-04-05 15:52:00,52.0,26.0,-100.00,NW,325,7.0,17.0,37,0.00,,,-99.99,,2013-04-05 19:52:00,
2013-04-05 16:02:00,52.0,25.0,-100.00,NNW,330,13.0,18.0,34,0.00,,,-99.99,,2013-04-05 20:02:00,
2013-04-05 16:11:00,53.0,25.0,-100.00,NW,305,7.0,16.0,34,0.00,,,-99.99,,2013-04-05 20:11:00,
2013-04-05 16:22:00,52.0,27.0,-100.00,North,0,6.0,19.0,36,0.00,,,-99.99,,2013-04-05 20:22:00,
2013-04-05 16:33:00,53.0,24.0,-100.00,NNW,340,12.0,18.0,31,0.00,,,-99.99,,2013-04-05 20:33:00,
2013-04-05 16:42:00,53.0,25.0,-100.00,NNW,345,9.0,16.0,33,0.00,,,-99.99,,2013-04-05 20:42:00,
2013-04-05 16:52:00,53.0,25.0,-100.00,NNW,345,9.0,16.0,33,0.00,,,-99.99,,2013-04-05 20:52:00,
2013-04-05 17:02:00,53.0,23.0,-100.00,North,10,9.0,16.0,31,0.00,,,-99.99,,2013-04-05 21:02:00,
2013-04-05 17:13:00,53.0,21.0,-100.00,NW,325,12.0,15.0,28,0.00,,,-99.99,,2013-04-05 21:13:00,
2013-04-05 17:23:00,54.0,24.0,-100.00,NW,310,9.0,16.0,30,0.00,,,-99.99,,2013-04-05 21:23:00,
2013-04-05 17:43:00,53.0,21.0,-100.00,NW,305,2.0,16.0,28,0.00,,,-99.99,,2013-04-05 21:43:00,
2013-04-05 17:53:00,54.0,23.0,-100.00,North,0,7.0,11.0,29,0.00,,,-99.99,,2013-04-05 21:53:00,
2013-04-05 18:03:00,52.0,23.0,-100.00,NNE,15,6.0,12.0,31,0.00,,,-99.99,,2013-04-05 22:03:00,
2013-04-05 18:13:00,53.0,23.0,-100.00,North,10,6.0,9.0,30,0.00,,,-99.99,,2013-04-05 22:13:00,
2013-04-05 18:23:00,53.0,21.0,-100.00,NNW,335,8.0,11.0,28,0.00,,,-99.99,,2013-04-05 22:23:00,
2013-04-05 18:33:00,53.0,22.0,-100.00,NW,315,7.0,11.0,29,0.00,,,-99.99,,2013-04-05 22:33:00,
2013-04-05 18:43:00,52.0,21.0,-100.00,NNW,335,6.0,12.0,29,0.00,,,-99.99,,2013-04-05 22:43:00,
2013-04-05 18:52:00,52.0,20.0,-100.00,NNW,335,7.0,9.0,28,0.00,,,-99.99,,2013-04-05 22:52:00,
2013-04-05 19:03:00,52.0,21.0,-100.00,NW,315,4.0,10.0,28,0.00,,,-99.99,,2013-04-05 23:03:00,
2013-04-05 19:12:00,52.0,21.0,-100.00,NNW,330,4.0,9.0,29,0.00,,,-99.99,,2013-04-05 23:12:00,
2013-04-05 19:22:00,53.0,22.0,-100.00,NNW,345,2.0,8.0,30,0.00,,,-99.99,,2013-04-05 23:22:00,
2013-04-05 19:33:00,52.0,20.0,-100.00,NNW,330,9.0,10.0,29,0.00,,,-99.99,,2013-04-05 23:33:00,
2013-04-05 19:42:00,51.0,20.0,-100.00,NNW,335,4.0,8.0,29,0.00,,,-99.99,,2013-04-05 23:42:00,
2013-04-05 19:52:00,50.0,20.0,-100.00,North,10,1.0,7.0,30,0.00,,,-99.99,,2013-04-05 23:52:00,
2013-04-05 20:03:00,50.0,21.0,-100.00,NNW,330,4.0,6.0,31,0.00,,,-99.99,,2013-04-06 00:03:00,
2013-04-05 20:13:00,48.0,21.0,-100.00,North,0,2.0,5.0,34,0.00,,,-99.99,,2013-04-06 00:13:00,
2013-04-05 20:23:00,48.0,20.0,-100.00,NNE,20,1.0,5.0,32,0.00,,,-99.99,,2013-04-06 00:23:00,
2013-04-05 20:33:00,47.0,20.0,-100.00,North,0,2.0,6.0,33,0.00,,,-99.99,,2013-04-06 00:33:00,
2013-04-05 20:42:00,46.0,20.0,-100.00,North,0,1.0,3.0,35,0.00,,,-99.99,,2013-04-06 00:42:00,
2013-04-05 20:52:00,46.0,20.0,-100.00,NW,320,1.0,3.0,35,0.00,,,-99.99,,2013-04-06 00:52:00,
2013-04-05 21:02:00,47.0,19.0,-100.00,WSW,245,1.0,3.0,33,0.00,,,-99.99,,2013-04-06 01:02:00,
2013-04-05 21:13:00,47.0,19.0,-100.00,South,190,1.0,4.0,33,0.00,,,-99.99,,2013-04-06 01:13:00,
2013-04-05 21:22:00,46.0,19.0,-100.00,ENE,65,1.0,4.0,34,0.00,,,-99.99,,2013-04-06 01:22:00,
2013-04-05 21:33:00,45.0,18.0,-100.00,NE,45,0.0,2.0,34,0.00,,,-99.99,,2013-04-06 01:33:00,
2013-04-05 21:43:00,44.0,19.0,-100.00,NNE,15,1.0,2.0,36,0.00,,,-99.99,,2013-04-06 01:43:00,
2013-04-05 21:52:00,45.0,18.0,-100.00,NNW,330,1.0,2.0,34,0.00,,,-99.99,,2013-04-06 01:52:00,
2013-04-05 22:02:00,44.0,18.0,-100.00,West,260,1.0,3.0,35,0.00,,,-99.99,,2013-04-06 02:02:00,
2013-04-05 22:12:00,44.0,18.0,-100.00,North,0,1.0,4.0,35,0.00,,,-99.99,,2013-04-06 02:12:00,
2013-04-05 22:22:00,43.0,18.0,-100.00,North,5,2.0,4.0,35,0.00,,,-99.99,,2013-04-06 02:22:00,
2013-04-05 22:32:00,44.0,16.0,-100.00,NNE,25,5.0,9.0,32,0.00,,,-99.99,,2013-04-06 02:32:00,
2013-04-05 22:42:00,43.0,19.0,-100.00,NE,55,4.0,10.0,38,0.00,,,-99.99,,2013-04-06 02:42:00,
2013-04-05 22:52:00,41.0,22.0,-100.00,NE,55,2.0,6.0,45,0.00,,,-99.99,,2013-04-06 02:52:00,
2013-04-05 23:03:00,40.0,23.0,-100.00,ENE,65,3.0,7.0,50,0.00,,,-99.99,,2013-04-06 03:03:00,
2013-04-05 23:12:00,40.0,24.0,-100.00,East,80,6.0,9.0,52,0.00,,,-99.99,,2013-04-06 03:12:00,
2013-04-05 23:22:00,38.0,24.0,-100.00,East,80,3.0,7.0,55,0.00,,,-99.99,,2013-04-06 03:22:00,
2013-04-05 23:34:00,38.0,24.0,-100.00,East,90,2.0,5.0,58,0.00,,,-99.99,,2013-04-06 03:34:00,
2013-04-05 23:43:00,37.0,24.0,-100.00,East,80,3.0,6.0,58,0.00,,,-99.99,,2013-04-06 03:43:00,
2013-04-05 23:53:00,37.0,24.0,-100.00,ENE,75,4.0,6.0,59,0.00,,,-99.99,,2013-04-06 03:53:00,